Location: ???? ??? ?????? ????????
(31.1242°N, 31.7469°E)
Time: 00:25:23
(UTC+00:00)

Daily predictions for brighter satellites

Satellite Brightness Start Highest point End
(mag) Time Altitude Azimuth Time Altitude Azimuth Time Altitude Azimuth
Cosmos 2297 Rocket 4.3 00:21:55 21° E 00:21:55 21° E 00:24:52 10° NE
Cosmos 2227 Rocket 3.6 00:46:33 34° E 00:46:33 34° E 00:50:53 10° NE
Cosmos 2219 Rocket 4.4 00:46:23 10° NNW 00:47:26 16° N 00:47:26 16° N
IDEFIX/ARIANE 42P 3.8 00:51:02 10° NNE 00:54:35 39° NE 00:54:35 39° NE
SL-4 R/B 4.4 01:04:38 21° ENE 01:04:38 21° ENE 01:06:50 10° E
Cosmos 1634 Rocket 4.5 00:59:16 10° N 01:05:19 56° E 01:07:16 40° SE
BREEZE M DEB (TANK) 4.3 01:06:42 55° ESE 01:06:42 55° ESE 01:15:43 10° SE
USA 238 DEB 3.5 01:15:54 79° SSE 01:16:12 82° ESE 01:22:59 10° NNE
USA 238 3.5 01:15:56 78° SSE 01:16:17 81° ESE 01:23:06 10° NNE
Meteor 1-18 Rocket 4.4 01:21:33 65° SE 01:22:15 73° E 01:28:02 10° NNE
Geosat 4.3 01:22:50 10° NNE 01:26:56 57° N 01:26:56 57° N
CZ-2C R/B 3.7 01:25:42 10° NE 01:29:49 33° E 01:32:10 20° SSE
GPS 2-04 Rocket1 4.1 01:32:47 34° E 01:32:47 34° E 01:35:05 10° E
USA 234 4.1 01:27:08 10° ESE 01:33:20 48° NE 01:39:34 10° NNW
Okean 1-7 4.5 01:36:43 29° N 01:36:43 29° N 01:38:57 10° N
STARLINK-1020 4.5 01:37:55 45° NNE 01:37:55 45° NNE 01:40:56 10° NE
CBERS 1 LM4 rocket 4.4 01:32:16 10° NNE 01:37:11 83° ESE 01:37:38 73° SSE
ASTRO E2 3.6 01:39:04 45° E 01:39:04 45° E 01:41:55 10° E
NOSS 0 Rocket 3.9 01:34:27 10° NNW 01:40:38 81° ENE 01:46:46 10° SSE
STARLINK-1052 4.3 01:42:41 48° N 01:42:41 48° N 01:45:52 10° NE
NOSS 3-2 (A) 3.2 01:43:54 60° W 01:44:21 63° WNW 01:50:25 10° NNE
Cosmos 389 Rocket 3.5 01:45:07 44° ESE 01:45:16 44° E 01:48:41 10° NNE
Sich 1 Rocket 4.4 01:43:57 10° N 01:48:13 50° E 01:52:28 10° SSE
Skynet4D Del rocket 4.3 01:47:44 47° WSW 01:49:43 64° S 01:57:34 10° ESE
Meteor 2-4 Rocket 4.2 01:44:28 11° S 01:50:00 63° E 01:55:51 10° NNE
Cosmos 2237 Rocket 2.6 01:44:38 10° NNW 01:50:16 65° ENE 01:55:54 10° SSE
STARLINK-1033 4.2 01:52:14 47° NNW 01:52:14 47° NNW 01:55:45 10° NNE
Cosmos 1689 Rocket 3.8 01:53:24 10° SE 01:56:08 34° ENE 01:58:55 10° N
Cosmos 1515 4.4 02:00:23 40° NNW 02:00:23 40° NNW 02:03:02 10° N
Cosmos 2279 Rocket 3.9 01:54:22 10° N 02:00:37 82° W 02:06:52 10° S
STARLINK-1024 4.3 02:01:50 40° NW 02:01:50 40° NW 02:05:38 10° NNE
Meteor 1-31 Rocket 4.5 01:58:30 10° NNE 02:02:05 33° E 02:05:37 10° SSE
Cosmos 2219 4.2 02:03:54 27° WNW 02:03:54 27° WNW 02:08:41 10° N
Cosmos 2297 Rocket 2.8 02:03:45 36° WNW 02:04:13 36° WNW 02:09:27 10° N
CENTAUR R/B 2.3 02:03:25 32° SSW 02:06:15 90° N 02:12:43 10° NNE
STARLINK-1035 4.4 02:06:37 36° NW 02:06:42 36° NW 02:10:33 10° NNE
H-2A R/B 4.4 02:05:12 10° NE 02:08:44 28° E 02:12:09 10° SSE
NOSS 3-2 (C) 3.3 02:09:38 35° SW 02:11:57 64° WNW 02:18:03 10° NNE
Meteor 2-9 Rocket 4.3 02:06:20 10° N 02:12:13 89° E 02:18:04 10° S
BREEZE-M DEB (TANK) 3.4 02:12:32 10° NW 02:16:40 54° NE 02:21:13 10° ESE
STARLINK-1050 4.5 02:16:02 22° SSW 02:18:21 46° SE 02:22:19 10° NE
Chandra Rocket (1) 3.9 02:09:43 24° WSW 02:19:22 66° S 02:24:28 10° E
Cosmos 2180 Rocket 4.4 02:13:33 10° N 02:19:44 73° W 02:25:58 10° S
STARLINK-1055 4.2 02:20:47 21° SSW 02:23:16 52° SE 02:27:17 10° NE
PAYLOAD A 4.3 02:18:10 10° N 02:23:22 49° WNW 02:26:51 20° SW
ALOS 3.8 02:21:38 10° NNE 02:25:57 37° E 02:30:15 10° SSE
Gblst 52 Del rocket 4.4 02:22:04 10° NW 02:28:02 74° NE 02:33:32 10° SE
STARLINK-1022 4.0 02:25:35 20° SSW 02:28:16 59° SE 02:32:20 10° NE
Cosmos 2227 Rocket 3.3 02:28:24 22° W 02:29:50 25° WNW 02:34:26 10° N
STARLINK-1042 3.8 02:30:22 19° SSW 02:33:13 67° SE 02:37:19 10° NE
CZ-4B R/B 3.7 02:37:10 12° NW 02:37:10 12° NW 02:37:39 10° NW
IDEFIX/ARIANE 42P 4.2 02:32:19 10° NNW 02:35:11 15° WNW 02:35:24 15° WNW
STARLINK-1056 3.7 02:35:09 18° SW 02:38:11 76° SE 02:42:19 10° NE
Okean 3 4.3 02:40:23 20° WSW 02:42:13 28° W 02:45:51 10° NNW
SL-4 R/B 2.7 02:40:20 17° WNW 02:42:56 35° SW 02:46:58 10° SSE
STARLINK-1054 3.6 02:39:55 16° SW 02:43:08 85° SE 02:47:17 10° NE
PSLV R/B 3.9 02:39:31 10° S 02:43:43 82° WSW 02:47:57 10° NNW
Cosmos 1975 3.9 02:43:31 10° NW 02:46:41 23° W 02:49:53 10° SW
Meteor 1-4 Rocket 2.7 02:44:24 10° SSW 02:48:02 52° W 02:51:43 10° N
STARLINK-1062 3.6 02:44:41 15° SW 02:48:06 85° NW 02:52:15 10° NE
Cosmos 494 Rocket 4.2 02:43:53 10° NNW 02:49:10 79° ENE 02:54:25 10° SSE
Meteor 1-23 Rocket 4.5 02:44:18 10° S 02:49:55 76° E 02:55:38 10° N
Cosmos 1980 4.4 02:46:24 10° NW 02:51:16 30° WSW 02:56:06 10° SSW
Cosmos 1484 Rocket 2.6 02:48:57 10° N 02:52:44 68° WNW 02:56:28 10° SSW
STARLINK-1053 3.6 02:49:29 13° SW 02:53:05 76° NW 02:57:14 10° NE
Cosmos 2195 Rocket 4.4 02:47:11 10° S 02:53:19 84° W 02:59:30 10° N
Cosmos 1048 Rocket 4.2 02:48:56 10° NNW 02:54:05 49° WSW 02:59:13 10° S
Delta 142 4.3 02:52:03 13° WSW 02:56:07 42° SSE 03:00:06 10° E
SeaSat 1 2.7 02:52:13 10° S 02:56:56 47° WSW 03:01:41 10° NW
ATLAS 3B R/B 2.6 02:50:51 10° SW 02:57:32 70° WNW 03:04:09 10° NNE
STARLINK-1061 3.6 02:54:16 12° SW 02:58:04 67° NW 03:02:11 10° NE
Okean 1 Rocket 4.0 02:54:57 10° N 02:59:12 52° E 03:03:28 10° SSE
Cosmos 1356 3.3 02:55:59 10° NNW 02:59:23 64° W 03:02:45 10° S
ATLAS 5 CENTAUR R/B 2.6 02:53:07 10° SW 03:00:12 41° WNW 03:02:57 10° N
Cosmos 1066 Rocket 4.4 02:56:41 10° S 03:02:29 90° E 03:08:22 10° N
STARLINK-1067 3.7 02:59:02 10° SW 03:03:02 60° NW 03:07:07 10° NE
COSMO-SKYMED 1 3.2 03:02:09 10° SSE 03:06:24 61° ENE 03:10:41 10° N
SL-16 R/B 2.2 03:00:49 10° NNW 03:06:29 78° WSW 03:12:08 10° SSE
CZ-2C R/B 3.7 03:04:47 10° NNW 03:07:46 18° WNW 03:10:45 10° WSW
STARLINK-1058 3.9 03:04:00 10° WSW 03:08:02 53° NW 03:12:06 10° NNE
GPS 2-04 Rocket1 3.4 03:07:11 10° W 03:10:41 33° SSW 03:14:01 10° SE
STARLINK-1043 4.0 03:09:01 10° WSW 03:13:00 47° NW 03:17:00 10° NNE
Meteor PRIRODA 3.9 03:09:36 10° N 03:13:06 44° WNW 03:16:36 10° SSW
STARLINK-1065 4.1 03:10:42 10° WSW 03:14:40 45° NW 03:18:39 10° NNE
Cosmos 1437 Rocket 3.1 03:10:51 10° S 03:14:54 76° E 03:19:00 10° N
SWIFT 4.4 03:12:19 10° SW 03:15:07 17° S 03:17:55 10° SE
USA 234 3.8 03:10:21 10° SSE 03:16:18 38° SW 03:22:18 10° WNW
FENGYUN 3A 3.7 03:12:46 10° N 03:18:05 61° WNW 03:23:21 10° SSW
Cosmos 1092 Rocket 4.4 03:12:24 10° SSW 03:18:20 42° W 03:24:19 10° N
ASTRO E2 2.9 03:14:28 10° W 03:18:21 55° SSW 03:22:14 10° ESE
